"read_dt","SO2 (ppb)","flags","PMT voltage (V)","lamp voltage (V)","lamp intensity (Hz)","internal temp (C)","react chamber temp (C)","sample flow (l/min)","pres (mmHg)","SO2 bkg (ppb)","SO2 coefficient"
2015-12-10 00:00:00,1812E-3,5C000400,-0724,0830,12239,021.3,045.3,0.267,758.4,01.16,0.508
2015-12-10 00:01:00,1720E-3,5C000400,-0724,0832,12151,021.3,045.2,0.267,758.4,01.16,0.508
2015-12-10 00:02:00,1812E-3,5C000400,-0724,0830,12074,021.3,045.3,0.267,758.4,01.16,0.508
2015-12-10 00:03:00,1729E-3,5C000400,-0724,0831,12256,021.3,045.3,0.267,758.4,01.16,0.508
2015-12-10 00:04:00,1814E-3,5C000400,-0724,0831,12118,021.3,045.3,0.267,758.4,01.16,0.508
2015-12-10 00:05:00,1704E-3,5C000400,-0724,0831,12261,021.3,045.2,0.267,758.4,01.16,0.508
2015-12-10 00:06:00,1715E-3,5C000400,-0724,0830,12150,021.3,045.3,0.267,758.4,01.16,0.508
2015-12-10 00:07:00,1714E-3,5C000400,-0724,0831,12188,021.3,045.3,0.267,758.4,01.16,0.508
2015-12-10 00:08:00,1598E-3,5C000400,-0724,0831,12122,021.3,045.3,0.267,758.4,01.16,0.508
2015-12-10 00:09:00,1739E-3,5C000400,-0724,0831,12002,021.3,045.3,0.267,758.4,01.16,0.508
2015-12-10 00:10:00,1621E-3,5C000400,-0724,0831,12154,021.3,045.3,0.267,758.4,01.16,0.508
2015-12-10 00:11:00,1698E-3,5C000400,-0724,0831,12122,021.3,045.2,0.267,758.3,01.16,0.508
2015-12-10 00:12:00,1775E-3,5C000400,-0724,0831,12130,021.3,045.2,0.267,758.3,01.16,0.508
2015-12-10 00:13:00,1702E-3,5C000400,-0724,0831,12122,021.3,045.3,0.267,758.3,01.16,0.508
2015-12-10 00:14:00,1734E-3,5C000400,-0724,0831,12149,021.3,045.3,0.267,758.3,01.16,0.508
2015-12-10 00:15:00,1850E-3,5C000400,-0724,0831,12202,021.3,045.3,0.268,758.3,01.16,0.508
2015-12-10 00:16:00,1778E-3,5C000400,-0724,0831,12155,021.3,045.3,0.268,758.3,01.16,0.508
2015-12-10 00:17:00,1740E-3,5C000400,-0724,0830,12218,021.3,045.2,0.267,758.3,01.16,0.508
2015-12-10 00:18:00,1815E-3,5C000400,-0724,0831,12277,021.3,045.3,0.267,758.3,01.16,0.508
2015-12-10 00:19:00,1638E-3,5C000400,-0724,0831,12250,021.3,045.3,0.267,758.3,01.16,0.508
2015-12-10 00:20:00,1734E-3,5C000400,-0724,0831,12122,021.3,045.3,0.267,758.3,01.16,0.508
2015-12-10 00:21:00,1782E-3,5C000400,-0724,0831,12032,021.4,045.3,0.267,758.3,01.16,0.508
2015-12-10 00:22:00,1677E-3,5C000400,-0724,0831,12315,021.3,045.2,0.267,758.3,01.16,0.508
2015-12-10 00:23:00,1744E-3,5C000400,-0724,0830,12174,021.3,045.3,0.267,758.3,01.16,0.508
2015-12-10 00:24:00,1619E-3,5C000400,-0724,0831,12229,021.3,045.3,0.267,758.3,01.16,0.508
2015-12-10 00:25:00,1738E-3,5C000400,-0724,0831,12114,021.3,045.3,0.267,758.3,01.16,0.508
2015-12-10 00:26:00,1671E-3,5C000400,-0724,0831,12154,021.3,045.2,0.267,758.3,01.16,0.508
2015-12-10 00:27:00,1697E-3,5C000400,-0724,0831,12264,021.3,045.3,0.267,758.3,01.16,0.508
2015-12-10 00:28:00,1740E-3,5C000400,-0724,0831,12180,021.3,045.3,0.267,758.3,01.16,0.508
2015-12-10 00:29:00,1760E-3,5C000400,-0724,0831,12302,021.3,045.3,0.267,758.3,01.16,0.508
2015-12-10 00:30:00,1698E-3,5C000400,-0724,0831,12076,021.3,045.3,0.267,758.2,01.16,0.508
2015-12-10 00:31:00,1653E-3,5C000400,-0724,0831,12106,021.3,045.3,0.267,758.2,01.16,0.508
2015-12-10 00:32:00,1854E-3,5C000400,-0724,0831,12123,021.3,045.3,0.267,758.2,01.16,0.508
2015-12-10 00:33:00,1737E-3,5C000400,-0724,0830,12282,021.3,045.2,0.267,758.2,01.16,0.508
2015-12-10 00:34:00,1709E-3,5C000400,-0724,0831,12220,021.3,045.3,0.267,758.2,01.16,0.508
2015-12-10 00:35:00,1847E-3,5C000400,-0724,0832,12358,021.3,045.3,0.267,758.2,01.16,0.508
2015-12-10 00:36:00,1647E-3,5C000400,-0724,0831,12130,021.3,045.2,0.267,758.2,01.16,0.508
2015-12-10 00:37:00,1766E-3,5C000400,-0724,0832,12337,021.4,045.3,0.267,758.2,01.16,0.508
2015-12-10 00:38:00,1724E-3,5C000400,-0724,0830,12153,021.3,045.3,0.267,758.2,01.16,0.508
2015-12-10 00:39:00,1790E-3,5C000400,-0724,0830,12234,021.3,045.3,0.267,758.2,01.16,0.508
2015-12-10 00:40:00,1819E-3,5C000400,-0724,0831,12154,021.3,045.3,0.267,758.2,01.16,0.508
2015-12-10 00:41:00,1700E-3,5C000400,-0724,0830,12258,021.3,045.3,0.267,758.2,01.16,0.508
2015-12-10 00:42:00,1754E-3,5C000400,-0724,0831,12241,021.3,045.3,0.267,758.2,01.16,0.508
2015-12-10 00:43:00,1712E-3,5C000400,-0724,0832,12256,021.3,045.3,0.267,758.2,01.16,0.508
2015-12-10 00:44:00,1880E-3,5C000400,-0724,0831,12308,021.3,045.3,0.267,758.2,01.16,0.508
2015-12-10 00:45:00,1678E-3,5C000400,-0724,0830,12166,021.3,045.3,0.267,758.2,01.16,0.508
2015-12-10 00:46:00,1707E-3,5C000400,-0724,0831,12270,021.3,045.3,0.267,758.2,01.16,0.508
2015-12-10 00:47:00,1801E-3,5C000400,-0724,0831,12243,021.3,045.2,0.267,758.2,01.16,0.508
2015-12-10 00:48:00,1630E-3,5C000400,-0724,0831,12136,021.3,045.2,0.267,758.2,01.16,0.508
2015-12-10 00:49:00,1713E-3,5C000400,-0724,0832,12165,021.4,045.2,0.267,758.2,01.16,0.508
2015-12-10 00:50:00,1791E-3,5C000400,-0724,0830,12065,021.4,045.3,0.267,758.2,01.16,0.508
2015-12-10 00:51:00,1742E-3,5C000400,-0724,0831,12279,021.3,045.3,0.267,758.2,01.16,0.508
2015-12-10 00:52:00,1624E-3,5C000400,-0724,0830,12207,021.4,045.2,0.267,758.2,01.16,0.508
2015-12-10 00:53:00,1642E-3,5C000400,-0724,0831,12183,021.3,045.3,0.267,758.2,01.16,0.508
2015-12-10 00:54:00,1703E-3,5C000400,-0724,0831,12177,021.4,045.3,0.267,758.2,01.16,0.508
2015-12-10 00:55:00,1759E-3,5C000400,-0724,0831,12242,021.4,045.3,0.267,758.2,01.16,0.508
2015-12-10 00:56:00,1749E-3,5C000400,-0724,0831,12242,021.3,045.2,0.267,758.2,01.16,0.508
2015-12-10 00:57:00,1782E-3,5C000400,-0724,0831,12063,021.3,045.2,0.267,758.2,01.16,0.508
2015-12-10 00:58:00,1676E-3,5C000400,-0724,0831,12115,021.3,045.2,0.267,758.2,01.16,0.508
2015-12-10 00:59:00,1666E-3,5C000400,-0724,0830,12261,021.3,045.3,0.267,758.2,01.16,0.508
2015-12-10 01:00:00,1820E-3,5C000400,-0724,0831,12299,021.3,045.3,0.267,758.2,01.16,0.508
2015-12-10 01:01:00,1752E-3,5C000400,-0724,0831,12221,021.3,045.3,0.267,758.2,01.16,0.508
2015-12-10 01:02:00,1572E-3,5C000400,-0724,0831,12196,021.3,045.2,0.267,758.2,01.16,0.508
2015-12-10 01:03:00,1660E-3,5C000400,-0724,0831,12025,021.3,045.2,0.267,758.2,01.16,0.508
2015-12-10 01:04:00,1672E-3,5C000400,-0724,0831,12228,021.3,045.3,0.267,758.2,01.16,0.508
2015-12-10 01:05:00,1726E-3,5C000400,-0724,0830,12296,021.3,045.3,0.267,758.2,01.16,0.508
2015-12-10 01:06:00,1796E-3,5C000400,-0724,0830,12292,021.3,045.2,0.267,758.2,01.16,0.508
2015-12-10 01:07:00,1741E-3,5C000400,-0724,0831,12119,021.3,045.3,0.267,758.2,01.16,0.508
2015-12-10 01:08:00,1632E-3,5C000400,-0724,0831,12196,021.3,045.2,0.267,758.2,01.16,0.508
2015-12-10 01:09:00,1786E-3,5C000400,-0724,0830,12097,021.3,045.3,0.267,758.2,01.16,0.508
2015-12-10 01:10:00,1717E-3,5C000400,-0724,0830,12152,021.3,045.3,0.267,758.2,01.16,0.508
2015-12-10 01:11:00,1664E-3,5C000400,-0724,0831,12146,021.3,045.2,0.267,758.2,01.16,0.508
2015-12-10 01:12:00,1761E-3,5C000400,-0724,0830,12250,021.3,045.3,0.267,758.2,01.16,0.508
2015-12-10 01:13:00,1792E-3,5C000400,-0724,0831,12135,021.3,045.3,0.267,758.2,01.16,0.508
2015-12-10 01:14:00,1738E-3,5C000400,-0724,0831,12310,021.3,045.3,0.268,758.1,01.16,0.508
2015-12-10 01:15:00,1625E-3,5C000400,-0724,0830,12152,021.3,045.3,0.268,758.1,01.16,0.508
2015-12-10 01:16:00,1702E-3,5C000400,-0724,0833,12281,021.3,045.3,0.268,758.1,01.16,0.508
2015-12-10 01:17:00,1785E-3,5C000400,-0724,0831,12216,021.3,045.2,0.267,758.2,01.16,0.508
2015-12-10 01:18:00,1786E-3,5C000400,-0724,0830,12137,021.3,045.3,0.267,758.2,01.16,0.508
2015-12-10 01:19:00,1774E-3,5C000400,-0724,0830,12228,021.3,045.3,0.267,758.2,01.16,0.508
2015-12-10 01:20:00,1753E-3,5C000400,-0724,0831,12209,021.3,045.3,0.267,758.2,01.16,0.508
2015-12-10 01:21:00,1598E-3,5C000400,-0724,0831,12099,021.3,045.3,0.267,758.2,01.16,0.508
2015-12-10 01:22:00,1716E-3,5C000400,-0724,0832,12130,021.3,045.3,0.267,758.2,01.16,0.508
2015-12-10 01:23:00,1719E-3,5C000400,-0724,0831,12371,021.3,045.3,0.267,758.1,01.16,0.508
2015-12-10 01:24:00,1662E-3,5C000400,-0724,0830,12111,021.3,045.3,0.267,758.1,01.16,0.508
2015-12-10 01:25:00,1795E-3,5C000400,-0724,0832,12115,021.3,045.2,0.267,758.1,01.16,0.508
2015-12-10 01:26:00,1687E-3,5C000400,-0724,0830,12296,021.3,045.3,0.267,758.0,01.16,0.508
2015-12-10 01:27:00,1866E-3,5C000400,-0724,0832,12436,021.3,045.3,0.267,758.0,01.16,0.508
2015-12-10 01:28:00,1632E-3,5C000400,-0724,0831,12179,021.4,045.3,0.267,758.1,01.16,0.508
2015-12-10 01:29:00,1678E-3,5C000400,-0724,0833,12233,021.3,045.3,0.267,758.1,01.16,0.508
2015-12-10 01:30:00,1808E-3,5C000400,-0724,0831,12088,021.3,045.3,0.267,758.0,01.16,0.508
2015-12-10 01:31:00,1818E-3,5C000400,-0724,0832,12286,021.3,045.3,0.267,758.0,01.16,0.508
2015-12-10 01:32:00,1752E-3,5C000400,-0724,0831,12186,021.3,045.2,0.267,758.0,01.16,0.508
2015-12-10 01:33:00,1702E-3,5C000400,-0724,0830,12167,021.3,045.3,0.267,758.0,01.16,0.508
2015-12-10 01:34:00,1829E-3,5C000400,-0724,0831,12165,021.4,045.3,0.267,758.0,01.16,0.508
2015-12-10 01:35:00,1837E-3,5C000400,-0724,0831,12254,021.4,045.3,0.267,758.0,01.16,0.508
2015-12-10 01:36:00,1722E-3,5C000400,-0724,0830,12110,021.4,045.3,0.267,758.1,01.16,0.508
2015-12-10 01:37:00,1786E-3,5C000400,-0724,0830,12134,021.4,045.3,0.267,758.0,01.16,0.508
2015-12-10 01:38:00,1789E-3,5C000400,-0724,0832,12266,021.4,045.2,0.267,758.0,01.16,0.508
2015-12-10 01:39:00,1759E-3,5C000400,-0724,0830,12202,021.4,045.3,0.267,758.0,01.16,0.508
2015-12-10 01:40:00,1865E-3,5C000400,-0724,0830,12251,021.4,045.3,0.267,758.0,01.16,0.508
2015-12-10 01:41:00,1682E-3,5C000400,-0724,0830,12085,020.9,045.3,0.267,758.7,01.16,0.508
2015-12-10 01:42:00,1839E-3,5C000400,-0724,0831,12194,021.1,045.3,0.268,758.7,01.16,0.508
2015-12-10 01:43:00,1760E-3,5C000400,-0724,0831,12183,021.2,045.2,0.268,758.7,01.16,0.508
2015-12-10 01:44:00,1785E-3,5C000400,-0724,0830,12267,021.2,045.3,0.268,758.7,01.16,0.508
2015-12-10 01:45:00,1715E-3,5C000400,-0724,0831,12168,021.2,045.3,0.268,758.7,01.16,0.508
2015-12-10 01:46:00,1725E-3,5C000400,-0724,0831,12171,021.3,045.3,0.268,758.7,01.16,0.508
2015-12-10 01:47:00,1732E-3,5C000400,-0724,0831,12134,021.3,045.3,0.268,758.6,01.16,0.508
2015-12-10 01:48:00,1748E-3,5C000400,-0724,0831,12244,021.3,045.3,0.268,758.7,01.16,0.508
2015-12-10 01:49:00,1672E-3,5C000400,-0724,0831,12152,021.3,045.3,0.268,758.6,01.16,0.508
2015-12-10 01:50:00,1707E-3,5C000400,-0724,0830,12146,021.3,045.3,0.268,758.7,01.16,0.508
2015-12-10 01:51:00,1782E-3,5C000400,-0724,0830,12179,021.4,045.3,0.268,758.7,01.16,0.508
2015-12-10 01:52:00,1830E-3,5C000400,-0724,0830,12222,021.4,045.2,0.268,758.6,01.16,0.508
2015-12-10 01:53:00,1540E-3,5C000400,-0724,0832,12259,021.5,045.3,0.268,758.7,01.16,0.508
2015-12-10 01:54:00,1687E-3,5C000400,-0724,0831,12105,021.4,045.3,0.268,758.6,01.16,0.508
2015-12-10 01:55:00,1700E-3,5C000400,-0724,0830,12101,021.5,045.3,0.268,758.6,01.16,0.508
2015-12-10 01:56:00,1713E-3,5C000400,-0724,0831,12276,021.5,045.3,0.267,758.6,01.16,0.508
2015-12-10 01:57:00,1675E-3,5C000400,-0724,0831,12187,021.5,045.3,0.267,758.6,01.16,0.508
2015-12-10 01:58:00,1640E-3,5C000400,-0724,0830,12256,021.5,045.3,0.267,758.6,01.16,0.508
2015-12-10 01:59:00,1909E-3,5C000400,-0724,0831,12231,021.5,045.2,0.267,758.6,01.16,0.508
2015-12-10 02:00:00,1649E-3,5C000400,-0724,0831,12114,021.6,045.3,0.268,758.6,01.16,0.508
2015-12-10 02:01:00,1835E-3,5C000400,-0724,0830,12223,021.5,045.3,0.268,758.6,01.16,0.508
2015-12-10 02:02:00,1791E-3,5C000400,-0724,0832,12162,021.5,045.3,0.267,758.5,01.16,0.508
2015-12-10 02:03:00,1670E-3,5C000400,-0724,0831,12258,021.5,045.3,0.267,758.5,01.16,0.508
2015-12-10 02:04:00,1782E-3,5C000400,-0724,0831,12192,021.6,045.2,0.267,758.5,01.16,0.508
2015-12-10 02:05:00,1801E-3,5C000400,-0724,0831,12243,021.6,045.3,0.267,758.5,01.16,0.508
2015-12-10 02:06:00,1706E-3,5C000400,-0724,0831,12225,021.5,045.3,0.267,758.5,01.16,0.508
2015-12-10 02:07:00,1783E-3,5C000400,-0724,0831,12083,021.5,045.3,0.267,758.5,01.16,0.508
2015-12-10 02:08:00,1769E-3,5C000400,-0724,0831,12201,021.5,045.3,0.267,758.4,01.16,0.508
2015-12-10 02:09:00,1827E-3,5C000400,-0724,0831,12220,021.5,045.3,0.267,758.4,01.16,0.508
2015-12-10 02:10:00,1828E-3,5C000400,-0724,0831,12100,021.6,045.3,0.267,758.4,01.16,0.508
2015-12-10 02:11:00,1754E-3,5C000400,-0724,0831,12220,021.6,045.3,0.267,758.4,01.16,0.508
2015-12-10 02:12:00,1732E-3,5C000400,-0724,0831,12258,021.6,045.3,0.267,758.4,01.16,0.508
2015-12-10 02:13:00,1838E-3,5C000400,-0724,0831,12307,021.5,045.3,0.267,758.3,01.16,0.508
2015-12-10 02:14:00,1810E-3,5C000400,-0724,0831,12147,021.5,045.3,0.267,758.3,01.16,0.508
2015-12-10 02:15:00,1765E-3,5C000400,-0724,0830,12335,021.5,045.3,0.268,758.3,01.16,0.508
2015-12-10 02:16:00,1804E-3,5C000400,-0724,0831,12301,021.5,045.3,0.268,758.3,01.16,0.508
2015-12-10 02:17:00,1777E-3,5C000400,-0724,0830,12289,021.6,045.2,0.267,758.4,01.16,0.508
2015-12-10 02:18:00,1803E-3,5C000400,-0724,0832,12150,021.5,045.3,0.268,758.4,01.16,0.508
2015-12-10 02:19:00,1671E-3,5C000400,-0724,0830,12310,021.5,045.3,0.268,758.4,01.16,0.508
2015-12-10 02:20:00,1628E-3,5C000400,-0724,0830,12049,021.5,045.3,0.268,758.4,01.16,0.508
2015-12-10 02:21:00,1862E-3,5C000400,-0724,0831,12187,021.5,045.3,0.268,758.4,01.16,0.508
2015-12-10 02:22:00,1723E-3,5C000400,-0724,0831,12187,021.5,045.3,0.268,758.4,01.16,0.508
2015-12-10 02:23:00,1682E-3,5C000400,-0724,0830,12112,021.5,045.3,0.268,758.4,01.16,0.508
2015-12-10 02:24:00,1751E-3,5C000400,-0724,0831,12282,021.5,045.3,0.268,758.4,01.16,0.508
2015-12-10 02:25:00,1742E-3,5C000400,-0724,0832,12214,021.5,045.3,0.267,758.4,01.16,0.508
2015-12-10 02:26:00,1771E-3,5C000400,-0724,0831,12103,021.5,045.3,0.268,758.4,01.16,0.508
2015-12-10 02:27:00,1712E-3,5C000400,-0724,0830,12227,021.5,045.2,0.267,758.4,01.16,0.508
2015-12-10 02:28:00,1715E-3,5C000400,-0724,0830,12232,021.5,045.3,0.267,758.4,01.16,0.508
2015-12-10 02:29:00,1744E-3,5C000400,-0724,0831,12297,021.5,045.3,0.267,758.3,01.16,0.508
2015-12-10 02:30:00,1743E-3,5C000400,-0724,0831,12299,021.5,045.3,0.267,758.3,01.16,0.508
2015-12-10 02:31:00,1765E-3,5C000400,-0724,0831,12246,021.4,045.3,0.267,758.3,01.16,0.508
2015-12-10 02:32:00,1748E-3,5C000400,-0724,0831,12277,021.4,045.3,0.267,758.3,01.16,0.508
2015-12-10 02:33:00,1781E-3,5C000400,-0724,0831,12333,021.4,045.3,0.267,758.3,01.16,0.508
2015-12-10 02:34:00,1720E-3,5C000400,-0724,0831,12270,021.5,045.3,0.267,758.3,01.16,0.508
2015-12-10 02:35:00,1730E-3,5C000400,-0724,0830,11983,021.4,045.3,0.267,758.3,01.16,0.508
2015-12-10 02:36:00,1810E-3,5C000400,-0724,0831,12213,021.4,045.3,0.267,758.3,01.16,0.508
2015-12-10 02:37:00,1686E-3,5C000400,-0724,0831,12197,021.4,045.3,0.267,758.3,01.16,0.508
2015-12-10 02:38:00,1673E-3,5C000400,-0724,0831,12318,021.4,045.3,0.267,758.3,01.16,0.508
2015-12-10 02:39:00,1828E-3,5C000400,-0724,0830,12225,021.4,045.3,0.267,758.3,01.16,0.508
2015-12-10 02:40:00,1656E-3,5C000400,-0724,0830,12163,021.4,045.3,0.267,758.3,01.16,0.508
2015-12-10 02:41:00,1689E-3,5C000400,-0724,0831,12152,021.4,045.3,0.267,758.3,01.16,0.508
2015-12-10 02:42:00,1802E-3,5C000400,-0724,0831,12162,021.4,045.3,0.267,758.3,01.16,0.508
2015-12-10 02:43:00,1707E-3,5C000400,-0724,0830,12104,021.4,045.3,0.267,758.3,01.16,0.508
2015-12-10 02:44:00,1735E-3,5C000400,-0724,0831,12233,021.4,045.3,0.267,758.3,01.16,0.508
2015-12-10 02:45:00,1723E-3,5C000400,-0724,0831,12229,021.4,045.3,0.268,758.3,01.16,0.508
2015-12-10 02:46:00,1806E-3,5C000400,-0724,0831,12223,021.4,045.3,0.268,758.3,01.16,0.508
2015-12-10 02:47:00,1739E-3,5C000400,-0724,0831,12151,021.4,045.3,0.268,758.3,01.16,0.508
2015-12-10 02:48:00,1742E-3,5C000400,-0724,0830,12316,021.4,045.3,0.268,758.3,01.16,0.508
2015-12-10 02:49:00,1718E-3,5C000400,-0724,0830,12130,021.3,045.3,0.268,758.2,01.16,0.508
2015-12-10 02:50:00,1560E-3,5C000400,-0724,0830,12227,021.3,045.3,0.268,758.2,01.16,0.508
2015-12-10 02:51:00,1783E-3,5C000400,-0724,0831,12192,021.3,045.2,0.268,758.2,01.16,0.508
2015-12-10 02:52:00,1718E-3,5C000400,-0724,0831,12048,021.3,045.3,0.268,758.2,01.16,0.508
2015-12-10 02:53:00,1704E-3,5C000400,-0724,0832,12205,021.3,045.2,0.268,758.2,01.16,0.508
2015-12-10 02:54:00,1639E-3,5C000400,-0724,0830,12317,021.3,045.2,0.268,758.2,01.16,0.508
2015-12-10 02:55:00,1809E-3,5C000400,-0724,0830,12159,021.3,045.2,0.268,758.2,01.16,0.508
2015-12-10 02:56:00,1603E-3,5C000400,-0724,0831,12163,021.3,045.2,0.268,758.2,01.16,0.508
2015-12-10 02:57:00,1663E-3,5C000400,-0724,0831,12315,021.3,045.2,0.268,758.2,01.16,0.508
2015-12-10 02:58:00,1801E-3,5C000400,-0724,0830,12049,021.3,045.3,0.268,758.2,01.16,0.508
2015-12-10 02:59:00,1756E-3,5C000400,-0724,0830,12319,021.3,045.3,0.268,758.2,01.16,0.508
2015-12-10 03:00:00,1771E-3,5C000400,-0724,0832,12314,021.3,045.3,0.268,758.2,01.16,0.508
2015-12-10 03:01:00,1798E-3,5C000400,-0724,0831,12319,021.3,045.2,0.268,758.1,01.16,0.508
2015-12-10 03:02:00,1692E-3,5C000400,-0724,0831,12180,021.3,045.2,0.268,758.2,01.16,0.508
2015-12-10 03:03:00,1625E-3,5C000400,-0724,0833,12439,021.3,045.2,0.268,758.1,01.16,0.508
2015-12-10 03:04:00,1757E-3,5C000400,-0724,0831,12054,021.3,045.3,0.268,758.1,01.16,0.508
2015-12-10 03:05:00,1820E-3,5C000400,-0724,0831,12122,021.3,045.3,0.268,758.1,01.16,0.508
2015-12-10 03:06:00,1665E-3,5C000400,-0724,0831,12062,021.2,045.3,0.268,758.1,01.16,0.508
2015-12-10 03:07:00,1617E-3,5C000400,-0724,0832,12137,021.3,045.2,0.268,758.1,01.16,0.508
2015-12-10 03:08:00,1764E-3,5C000400,-0724,0830,12195,021.3,045.3,0.268,758.1,01.16,0.508
2015-12-10 03:09:00,1782E-3,5C000400,-0724,0831,12236,021.3,045.3,0.268,758.1,01.16,0.508
2015-12-10 03:10:00,1732E-3,5C000400,-0724,0833,12285,021.3,045.3,0.268,758.1,01.16,0.508
2015-12-10 03:11:00,1619E-3,5C000400,-0724,0832,12154,021.3,045.3,0.268,758.1,01.16,0.508
2015-12-10 03:12:00,1924E-3,5C000400,-0724,0831,12211,021.3,045.3,0.268,758.1,01.16,0.508
2015-12-10 03:13:00,1668E-3,5C000400,-0724,0831,12326,021.3,045.3,0.268,758.1,01.16,0.508
2015-12-10 03:14:00,1707E-3,5C000400,-0724,0831,12195,021.2,045.2,0.268,758.1,01.16,0.508
2015-12-10 03:15:00,1703E-3,5C000400,-0724,0830,12151,021.2,045.2,0.268,758.0,01.16,0.508
2015-12-10 03:16:00,1716E-3,5C000400,-0724,0831,12220,021.2,045.2,0.268,758.0,01.16,0.508
2015-12-10 03:17:00,1727E-3,5C000400,-0724,0831,12304,021.2,045.2,0.267,758.0,01.16,0.508
2015-12-10 03:18:00,1807E-3,5C000400,-0724,0831,12091,021.2,045.3,0.268,758.0,01.16,0.508
2015-12-10 03:19:00,1749E-3,5C000400,-0724,0831,12121,021.2,045.3,0.268,758.0,01.16,0.508
2015-12-10 03:20:00,1822E-3,5C000400,-0724,0830,12302,021.2,045.2,0.268,758.0,01.16,0.508
2015-12-10 03:21:00,1834E-3,5C000400,-0724,0831,11956,021.2,045.2,0.268,758.1,01.16,0.508
2015-12-10 03:22:00,1849E-3,5C000400,-0724,0831,12090,021.2,045.3,0.268,758.0,01.16,0.508
2015-12-10 03:23:00,1805E-3,5C000400,-0724,0831,12183,021.2,045.3,0.268,758.0,01.16,0.508
2015-12-10 03:24:00,1716E-3,5C000400,-0724,0831,12226,021.2,045.3,0.268,758.0,01.16,0.508
2015-12-10 03:25:00,1807E-3,5C000400,-0724,0831,12292,021.2,045.3,0.268,758.0,01.16,0.508
2015-12-10 03:26:00,1716E-3,5C000400,-0724,0831,12230,021.2,045.3,0.268,758.0,01.16,0.508
2015-12-10 03:27:00,1627E-3,5C000400,-0724,0831,12111,021.2,045.2,0.268,758.0,01.16,0.508
2015-12-10 03:28:00,1793E-3,5C000400,-0724,0832,12270,021.2,045.3,0.268,758.0,01.16,0.508
2015-12-10 03:29:00,1733E-3,5C000400,-0724,0831,12215,021.2,045.2,0.268,758.0,01.16,0.508
2015-12-10 03:30:00,1846E-3,5C000400,-0724,0831,12274,021.2,045.3,0.268,758.0,01.16,0.508
2015-12-10 03:31:00,1793E-3,5C000400,-0724,0831,12281,021.2,045.2,0.268,758.0,01.16,0.508
2015-12-10 03:32:00,1714E-3,5C000400,-0724,0831,12221,021.2,045.3,0.268,758.0,01.16,0.508
2015-12-10 03:33:00,1810E-3,5C000400,-0724,0831,12189,021.1,045.2,0.268,758.0,01.16,0.508
2015-12-10 03:34:00,1747E-3,5C000400,-0724,0831,12258,021.1,045.3,0.268,758.0,01.16,0.508
2015-12-10 03:35:00,1770E-3,5C000400,-0724,0831,12205,021.1,045.3,0.268,758.1,01.16,0.508
2015-12-10 03:36:00,1760E-3,5C000400,-0724,0831,12144,021.1,045.3,0.268,758.0,01.16,0.508
2015-12-10 03:37:00,1738E-3,5C000400,-0724,0832,12225,021.1,045.3,0.268,758.0,01.16,0.508
2015-12-10 03:38:00,1807E-3,5C000400,-0724,0832,12349,021.1,045.3,0.268,758.0,01.16,0.508
2015-12-10 03:39:00,1884E-3,5C000400,-0724,0831,12297,021.1,045.2,0.268,758.0,01.16,0.508
2015-12-10 03:40:00,1734E-3,5C000400,-0724,0831,12307,021.1,045.3,0.268,758.0,01.16,0.508
2015-12-10 03:41:00,1607E-3,5C000400,-0724,0830,12167,021.1,045.3,0.268,758.0,01.16,0.508
2015-12-10 03:42:00,1665E-3,5C000400,-0724,0830,12240,021.1,045.3,0.268,758.0,01.16,0.508
2015-12-10 03:43:00,1873E-3,5C000400,-0724,0831,12066,021.1,045.2,0.268,758.0,01.16,0.508
2015-12-10 03:44:00,1713E-3,5C000400,-0724,0831,12105,021.1,045.2,0.268,758.1,01.16,0.508
2015-12-10 03:45:00,1762E-3,5C000400,-0724,0830,12108,021.1,045.2,0.268,758.1,01.16,0.508
2015-12-10 03:46:00,1611E-3,5C000400,-0724,0831,12220,021.1,045.3,0.268,758.0,01.16,0.508
2015-12-10 03:47:00,1731E-3,5C000400,-0724,0831,12122,021.1,045.2,0.268,758.1,01.16,0.508
2015-12-10 03:48:00,1894E-3,5C000400,-0724,0830,12232,021.1,045.2,0.268,758.1,01.16,0.508
2015-12-10 03:49:00,1693E-3,5C000400,-0724,0831,12181,021.1,045.2,0.268,758.1,01.16,0.508
2015-12-10 03:50:00,1678E-3,5C000400,-0724,0831,12204,021.1,045.3,0.268,758.1,01.16,0.508
2015-12-10 03:51:00,1841E-3,5C000400,-0724,0830,12220,021.1,045.3,0.268,758.1,01.16,0.508
2015-12-10 03:52:00,1674E-3,5C000400,-0724,0831,12188,021.1,045.3,0.268,758.1,01.16,0.508
2015-12-10 03:53:00,1596E-3,5C000400,-0724,0831,12068,021.1,045.2,0.268,758.1,01.16,0.508
2015-12-10 03:54:00,1810E-3,5C000400,-0724,0830,12258,021.1,045.3,0.268,758.1,01.16,0.508
2015-12-10 03:55:00,1724E-3,5C000400,-0724,0830,12070,021.1,045.3,0.268,758.1,01.16,0.508
2015-12-10 03:56:00,1828E-3,5C000400,-0724,0831,12280,021.1,045.3,0.268,758.1,01.16,0.508
2015-12-10 03:57:00,1695E-3,5C000400,-0724,0830,12288,021.1,045.3,0.268,758.1,01.16,0.508
2015-12-10 03:58:00,1791E-3,5C000400,-0724,0831,12284,021.1,045.3,0.268,758.1,01.16,0.508
2015-12-10 03:59:00,1752E-3,5C000400,-0724,0831,12205,021.1,045.2,0.268,758.1,01.16,0.508
2015-12-10 04:00:00,1772E-3,5C000400,-0724,0831,12151,021.1,045.3,0.268,758.1,01.16,0.508
2015-12-10 04:01:00,1694E-3,5C000400,-0724,0830,12079,021.1,045.3,0.268,758.1,01.16,0.508
2015-12-10 04:02:00,1713E-3,5C000400,-0724,0830,12087,021.1,045.2,0.268,758.1,01.16,0.508
2015-12-10 04:03:00,1696E-3,5C000400,-0724,0831,12324,021.1,045.3,0.268,758.1,01.16,0.508
2015-12-10 04:04:00,1685E-3,5C000400,-0724,0831,12040,021.1,045.3,0.268,758.1,01.16,0.508
2015-12-10 04:05:00,1809E-3,5C000400,-0724,0832,12129,021.1,045.3,0.268,758.1,01.16,0.508
2015-12-10 04:06:00,1820E-3,5C000400,-0724,0831,12241,021.1,045.3,0.268,758.1,01.16,0.508
2015-12-10 04:07:00,1739E-3,5C000400,-0724,0830,12134,021.1,045.3,0.268,758.1,01.16,0.508
2015-12-10 04:08:00,1736E-3,5C000400,-0724,0831,12283,021.1,045.2,0.268,758.1,01.16,0.508
2015-12-10 04:09:00,1752E-3,5C000400,-0724,0831,12186,021.0,045.3,0.268,758.1,01.16,0.508
2015-12-10 04:10:00,1675E-3,5C000400,-0724,0830,12167,021.0,045.3,0.268,758.0,01.16,0.508
2015-12-10 04:11:00,1785E-3,5C000400,-0724,0830,12211,021.1,045.2,0.268,758.1,01.16,0.508
2015-12-10 04:12:00,1812E-3,5C000400,-0724,0830,12266,021.0,045.3,0.268,758.0,01.16,0.508
2015-12-10 04:13:00,1856E-3,5C000400,-0724,0829,12380,021.0,045.2,0.268,758.1,01.16,0.508
2015-12-10 04:14:00,1716E-3,5C000400,-0724,0830,12267,021.0,045.3,0.268,758.0,01.16,0.508
2015-12-10 04:15:00,1658E-3,5C000400,-0724,0831,12132,021.0,045.3,0.268,758.0,01.16,0.508
2015-12-10 04:16:00,1753E-3,5C000400,-0724,0831,12194,021.1,045.2,0.268,758.0,01.16,0.508
2015-12-10 04:17:00,1739E-3,5C000400,-0724,0831,12279,021.0,045.2,0.268,758.0,01.16,0.508
2015-12-10 04:18:00,1783E-3,5C000400,-0724,0831,12258,021.0,045.3,0.268,758.0,01.16,0.508
2015-12-10 04:19:00,1668E-3,5C000400,-0724,0830,12185,021.0,045.2,0.268,758.0,01.16,0.508
2015-12-10 04:20:00,1711E-3,5C000400,-0724,0831,12348,021.0,045.2,0.268,758.0,01.16,0.508